Flag for U.S.A. Weather past 2 weeks in Norwalk, California, U.S.A.

Now
66 °F

Sunny.


Feels Like: 66 °F
Forecast: 39 / 61 °F
Wind: 10 mph from Northwest

Location: Fullerton Municipal Airport

Current Time: Dec 25, 2014 at 4:22:41 PM

Latest Report: Dec 25, 2014 at 3:53 PM


Visibility: 10 mi

Pressure: 29.80 "Hg

Humidity: 12%

Dew point: 12 °F

Location of NorwalkLocation

Historic Weather in Norwalk — Graph

°F

Norwalk temperature yesterday

Maximum temperature yesterday: 75 °F (at 12:53 PM)
Minimum temperature yesterday: 50 °F (at 6:53 AM)
Average temperature yesterday: 62 °F

Past Weeks' High & Low Weather Summary

 TemperatureHumidityPressure
High84 °F (Dec 23, 1:53 PM)93% (Dec 12, 7:53 AM)30.23 "Hg (Dec 12, 7:53 AM)
Low47 °F (Dec 14, 5:53 AM)13% (Dec 25, 2:53 PM)29.76 "Hg (Dec 25, 2:53 AM)
Average59 °F70%30.03 "Hg
* Reported Dec 10 2:53 PM — Dec 25 2:53 PM, Norwalk, Weather by CustomWeather, © 2014

Note: Actual official high and low records may vary slightly from our data, if they occured in-between our weather recording intervals... More about our weather records

Advertising

Norwalk weather history for previous 24 hours

 ConditionsComfort  
Time TempWeatherWind HumidityBarometerVisibility
2:53 PM
Dec 25
68 °FSunny.9 mph13%29.79 "Hg10 mi
1:53 PM67 °FSunny.No wind16%29.79 "Hg10 mi
12:53 PM67 °FSunny.7 mph20%29.80 "Hg10 mi
11:53 AM67 °FPassing clouds.7 mph24%29.82 "Hg10 mi
10:53 AM64 °FSunny.6 mph52%29.85 "Hg10 mi
9:53 AM60 °FPassing clouds.No wind49%29.85 "Hg10 mi
8:53 AM58 °FSunny.No wind41%29.85 "Hg10 mi
7:53 AM53 °FSunny.5 mph51%29.83 "Hg10 mi
6:53 AM50 °FClear.No wind63%29.80 "Hg10 mi
5:53 AM51 °FClear.6 mph66%29.79 "Hg10 mi
4:53 AM54 °FClear.5 mph72%29.78 "Hg10 mi
3:53 AM57 °FPassing clouds.5 mph87%29.77 "Hg8 mi
2:53 AM58 °FMostly cloudy.No wind87%29.76 "Hg8 mi
1:53 AM59 °FMostly cloudy.No wind81%29.78 "Hg9 mi
12:53 AM58 °FOvercast.5 mph78%29.78 "Hg10 mi
11:53 PM
Dec 24
57 °FPartly cloudy.No wind87%29.81 "Hg8 mi
10:53 PM57 °FClear.No wind83%29.83 "Hg10 mi
9:53 PM59 °FPassing clouds.3 mph75%29.85 "Hg10 mi
8:53 PM59 °FClear.No wind69%29.85 "Hg10 mi
7:53 PM61 °FClear.No wind65%29.85 "Hg10 mi
6:53 PM64 °FClear.3 mph47%29.88 "Hg10 mi
5:53 PM66 °FClear.No wind40%29.89 "Hg10 mi
4:53 PM67 °FClear.5 mph45%29.88 "Hg10 mi
Weather by CustomWeather, © 2014

See weather overviewHow to use our weather pages